This demonstration page uses our WeatherBlox Daily Observations layout. Learn more.

36.19886, -115.1175

Hourly Observations for July 10, 2018

Temp ( °F °C ) Dew Point ( °F °C ) Humidity (%) Winds ( mph kmh ) Pressure ( in mb ) Visibility ( mi km ) Precip ( " mm )
12:53 am 00:53 Mostly Clear with Light Rain 75 23.9 68 20 79 79 SW 8 13 30.12 1020 10 16.09344 0 0
1:53 am 01:53 Mostly Clear 74 23.3 67 19.4 79 79 WNW 12 19 30.03 1017 10 16.09344 0 0
2:53 am 02:53 Mostly Clear 76 24.4 66 18.9 72 72 NE 5 7 30 1016 10 16.09344 0 0
3:53 am 03:53 Clear 75 23.9 67 19.4 76 76 NW 7 11 29.97 1015 10 16.09344 0 0
4:53 am 04:53 Clear 74 23.3 67 19.4 79 79 SE 9 15 30 1016 10 16.09344 0 0
5:53 am 05:53 Sunny 74 23.3 66 18.9 76 76 WSW 5 7 30.03 1017 10 16.09344 0 0
6:53 am 06:53 Sunny 75 23.9 67 19.4 76 76 Calm 30.03 1017 10 16.09344 0 0
7:53 am 07:53 Sunny 78 25.6 66 18.9 67 67 Calm 30.03 1017 10 16.09344 0 0
8:53 am 08:53 Sunny 80 26.7 65 18.3 60 60 N 5 7 30.03 1017 10 16.09344 0 0
9:53 am 09:53 Sunny 83 28.3 63 17.2 51 51 Calm 30.03 1017 10 16.09344 0 0
10:53 am 10:53 Sunny 85 29.4 62 16.7 46 46 SSE 3 6 30.03 1017 10 16.09344 0 0
11:53 am 11:53 Sunny 88 31.1 61 16.1 40 40 N 5 7 30.03 1017 10 16.09344 0 0
12:53 pm 12:53 Sunny 90 32.2 59 15 35 35 SE 7 11 30 1016 10 16.09344 0 0
1:53 pm 13:53 Sunny 92 33.3 57 13.9 31 31 N 5 7 29.97 1015 10 16.09344 0 0
2:53 pm 14:53 Sunny 95 35 56 13.3 27 27 E 3 6 29.91 1013 10 16.09344 0 0
3:53 pm 15:53 Sunny 96 35.6 56 13.3 26 26 Calm 29.85 1011 10 16.09344 0 0
4:53 pm 16:53 Sunny 97 36.1 56 13.3 25 25 SSE 7 11 29.85 1011 10 16.09344 0 0
5:53 pm 17:53 Sunny 98 36.7 56 13.3 24 24 SSE 10 17 29.83 1010 10 16.09344 0 0
6:53 pm 18:53 Sunny 97 36.1 58 14.4 27 27 SSE 9 15 29.85 1011 10 16.09344 0 0
7:53 pm 19:53 Sunny 93 33.9 58 14.4 31 31 SE 16 26 29.85 1011 10 16.09344 0 0
8:21 pm 20:21 Clear with Nearby Thunderstorms 93 33.9 58 14.4 31 31 S 12 19 29.74 1007 10 16.09344 0 0
8:36 pm 20:36 Clear 92 33.3 59 15 33 33 SSW 14 22 29.74 1007 10 16.09344 0 0
8:53 pm 20:53 Clear 91 32.8 60 15.6 35 35 S 12 19 29.88 1012 10 16.09344 0 0
9:33 pm 21:33 Clear with Thunderstorms 91 32.8 60 15.6 35 35 SSW 8 13 29.77 1008 10 16.09344 0 0
9:53 pm 21:53 Clear with Nearby Thunderstorms 90 32.2 60 15.6 37 37 SSW 10 17 29.88 1012 10 16.09344 0 0
10:28 pm 22:28 Mostly Clear with Thunderstorms 89 31.7 60 15.6 38 38 SSE 15 24 29.8 1009 10 16.09344 0 0
10:53 pm 22:53 Clear with Nearby Thunderstorms 86 30 60 15.6 42 42 S 15 24 29.91 1013 10 16.09344 0 0
11:43 pm 23:43 Clear 87 30.6 61 16.1 42 42 SSE 10 17 29.8 1009 10 16.09344 0 0
11:53 pm 23:53 Clear 87 30.6 61 16.1 42 42 SSE 9 15 29.91 1013 10 16.09344 0 0

Powered by AerisWeather